Temperature
19 19 18 18 18 18 18 18 18 18 18 18 18 18 18 18 18 18 18 18 18 19 19 19 19 19 19 18 19 19 18 18 18 18 18 17 17 17 17 17 17 16 16
19 19 18 18 18 18 18 18 18 18 18 18 18 18 18 18 18 18 18 18 18 18 19 19 18 18 18 18 18 19 19 18 18 18 18 17 17 17 17 17 17 17 16
18 18 18 18 19 18 18 18 18 18 18 18 18 18 18 18 18 18 18 18 18 18 19 19 18 18 18 18 18 18 19 19 18 18 18 18 18 17 17 17 17 17 17
18 18 18 18 19 18 18 18 18 18 18 18 18 18 18 18 18 18 18 18 18 18 19 18 18 18 18 18 18 18 18 18 18 18 18 18 18 18 17 17 17 17 17
18 18 18 18 18 18 18 18 18 18 18 18 18 18 18 18 18 19 19 19 19 19 19 19 18 18 18 18 18 18 18 18 18 18 18 18 18 17 17 17 17 17 17
19 18 18 18 18 18 18 18 18 18 18 18 18 18 18 18 19 19 19 19 19 19 19 19 18 18 18 18 18 18 18 18 18 18 18 18 18 17 17 17 17 17 17
19 18 18 18 18 18 18 18 18 18 18 18 18 18 18 18 18 19 19 19 19 19 19 19 19 18 18 18 18 18 18 18 18 18 18 18 18 18 17 17 17 17 17
18 18 18 18 18 17 17 18 18 18 18 18 17 17 17 17 18 18 18 18 18 19 19 19 18 18 18 18 18 18 18 18 18 18 18 18 18 18 17 17 17 17 17
17 17 17 17 17 17 17 17 17 17 17 17 17 16 16 16 17 17 17 17 17 18 18 18 18 18 18 18 18 18 18 18 17 17 17 17 17 17 17 17 17 17 17
17 17 16 16 16 16 16 16 16 16 16 16 16 16 16 16 16 16 16 17 17 17 17 17 17 18 18 18 18 18 18 18 18 17 17 17 17 17 17 17 17 17 16
16 16 16 16 16 16 16 16 16 16 16 16 16 16 16 15 15 15 15 16 16 16 16 16 17 17 17 17 17 17 17 17 17 17 17 17 17 16 17 17 17 17 16
16 16 16 16 16 15 15 16 15 15 15 15 15 15 15 15 15 15 15 15 15 16 16 16 16 16 16 16 16 16 17 17 17 17 17 17 17 16 16 16 16 16 16
15 15 15 15 15 15 15 15 15 15 15 15 15 14 14 14 14 14 14 14 15 15 15 16 15 15 15 15 16 16 16 16 16 17 16 16 16 16 16 16 16 16 16
14 14 14 14 14 15 15 15 14 14 14 14 14 14 14 14 14 14 14 14 14 14 15 14 15 15 15 15 15 15 16 16 16 16 16 16 16 16 16 16 16 16 16
13 14 14 14 14 14 14 14 14 14 14 14 14 13 13 13 13 14 14 14 14 14 14 14 14 14 14 14 15 15 15 16 16 16 15 15 15 15 15 15 15 15 15
13 13 13 13 13 13 14 14 14 14 14 14 13 13 13 13 13 13 13 14 14 14 14 13 13 13 14 14 14 14 15 15 15 15 15 15 15 14 14 14 14 14 14
12 12 12 13 13 13 13 13 14 14 13 13 13 13 13 13 13 13 13 14 14 14 13 13 13 13 13 13 13 14 14 14 14 14 14 14 14 14 14 14 13 13 13
12 12 12 12 12 13 13 13 13 13 13 13 13 12 12 12 13 13 13 13 13 13 13 13 13 13 13 13 13 13 13 13 14 14 14 13 13 13 13 13 13 13 13
11 11 12 12 12 12 13 13 13 13 13 12 12 12 12 12 13 13 13 13 13 13 13 13 13 13 13 13 13 13 13 13 13 13 13 12 12 12 12 12 12 12 12
12 11 11 12 12 12 12 12 12 12 12 12 12 12 12 12 12 13 13 13 13 13 13 13 13 12 12 12 12 12 12 12 12 12 12 12 12 12 12 12 12 12 12
11 11 11 11 11 11 11 11 11 11 11 11 12 12 12 12 12 12 12 12 13 12 12 12 12 12 12 12 12 12 12 12 12 12 12 12 12 12 12 11 11 11 11
11 11 11 11 11 11 11 11 11 11 11 11 11 11 12 12 12 12 12 12 12 12 12 12 12 11 11 11 11 11 11 11 11 11 12 11 12 11 11 11 11 11 11
11 11 11 11 11 11 11 11 11 11 11 11 11 11 11 11 11 11 11 12 12 12 12 11 11 11 11 11 11 11 11 11 10 11 11 11 11 11 10 10 10 10 11
11 11 11 11 11 11 11 11 11 11 11 11 11 11 11 11 11 11 11 11 11 11 11 11 11 11 10 10 10 10 10 10 10 10 10 11 11 11 10 10 10 10 10
11 11 11 11 11 11 11 11 11 11 11 11 11 11 11 11 11 11 11 11 11 11 11 11 11 10 10 10 10 10 10 10 10 9 10 10 10 10 10 9 9 10 10
11 11 11 11 11 11 11 11 11 11 11 11 11 11 11 11 11 11 11 11 11 11 11 11 10 10 10 10 10 10 10 9 9 9 9 9 9 9 9 9 9 9 9
Wind_Speed
9 7 7 8 10 12 10 7 8 9 10 12 13 12 11 13 14 15 15 20 22 22 22 23 24 24 24 24 24 24 23 23 22 22 22 22 22 23 24 24 24 24 23
9 10 10 7 7 10 11 9 9 11 11 10 11 10 10 11 11 14 15 18 22 24 24 24 24 25 25 25 25 24 24 23 22 23 23 23 23 23 24 24 24 24 24
12 8 9 9 8 11 11 9 8 7 9 9 10 10 8 7 7 9 13 14 16 22 25 25 25 26 26 26 26 25 24 23 22 23 24 24 24 24 24 24 24 23 24
13 8 9 10 9 9 6 7 6 6 7 7 7 7 6 7 8 8 10 12 14 15 19 25 26 26 27 28 27 26 25 25 24 23 24 24 24 24 24 24 24 23 24
14 8 10 10 9 8 8 8 7 6 7 7 7 7 7 8 9 9 9 9 12 14 15 18 24 26 27 28 28 27 26 25 25 25 25 25 25 24 24 23 23 23 23
12 8 9 11 10 9 9 8 8 7 6 7 8 8 7 8 7 8 10 9 9 13 15 15 16 18 24 28 29 28 27 26 25 25 25 25 25 25 24 23 23 23 24
10 7 8 8 8 9 11 10 8 8 8 6 5 6 7 8 10 10 9 9 11 11 12 12 13 13 14 21 26 28 28 26 25 25 25 26 26 26 24 23 23 24 24
9 8 7 7 7 8 9 9 8 6 6 5 5 4 4 5 6 9 7 7 8 8 9 8 8 9 10 10 13 20 24 25 25 25 24 25 26 25 25 24 24 24 25
8 7 8 8 7 7 8 9 8 9 8 6 6 6 5 6 4 4 3 1 2 2 3 4 4 3 5 6 7 11 16 19 22 25 25 25 25 25 25 26 26 25 25
9 8 9 8 8 7 8 8 8 7 8 7 5 6 6 5 4 4 3 2 2 1 2 3 3 2 1 2 3 3 5 9 12 16 20 22 23 23 24 25 26 26 26
10 10 9 8 8 8 8 9 7 7 7 7 5 4 4 4 5 5 4 3 2 2 3 4 2 1 1 3 4 5 4 4 5 8 11 15 19 21 22 23 25 26 27
9 10 10 9 8 7 8 8 7 7 6 6 5 4 4 3 3 4 4 3 2 3 3 2 2 2 2 3 4 5 4 4 5 6 6 7 11 15 17 20 23 24 25
9 10 9 8 7 7 6 6 6 6 6 5 5 4 4 4 3 3 3 2 1 2 3 4 4 4 3 3 2 3 4 4 5 6 6 5 2 1 2 2 4 7 12
9 9 8 7 6 5 5 5 5 6 5 6 6 5 3 3 3 3 3 3 1 1 3 4 3 5 4 3 5 5 4 5 5 5 5 5 5 5 4 3 1 1 3
7 6 4 3 4 4 4 4 5 6 5 5 5 4 3 2 2 2 2 3 3 2 1 3 4 4 4 4 7 6 5 6 4 3 3 3 3 2 1 0 2 4 6
5 5 5 4 3 3 3 4 4 5 5 4 4 4 3 1 1 1 1 2 3 3 2 1 2 3 5 5 8 8 8 9 7 5 3 2 2 3 3 3 4 6 7
5 6 6 5 5 4 2 1 1 2 4 3 3 5 5 4 3 2 2 2 3 3 4 3 4 5 7 6 6 6 8 8 8 10 6 4 4 5 6 6 7 8 9
6 6 6 6 6 5 3 2 3 4 6 7 7 7 6 5 5 4 4 5 4 4 6 6 5 6 6 5 5 5 5 7 7 12 12 8 6 6 6 7 8 9 11
6 6 6 6 5 4 4 4 6 9 9 9 8 8 7 8 7 6 7 6 6 7 6 6 4 4 4 3 4 4 5 5 7 11 12 12 10 8 8 8 8 9 10
4 5 5 5 5 5 6 7 10 10 10 9 8 7 7 8 8 8 8 8 9 9 7 6 5 4 3 3 4 4 4 4 5 6 7 8 9 9 9 11 11 12 13
3 2 3 5 5 4 5 9 9 10 11 11 10 9 9 11 11 9 8 8 8 7 6 6 4 4 5 4 4 4 4 4 3 3 4 4 4 4 5 8 11 15 15
2 1 3 5 5 4 7 11 10 9 10 11 10 9 9 10 12 14 15 12 9 7 6 4 3 4 3 3 4 4 4 4 4 5 3 4 2 3 4 4 10 14 15
3 3 4 5 5 5 10 14 13 9 9 8 9 8 9 9 10 9 11 12 12 11 7 5 4 2 2 2 3 5 4 2 2 5 4 4 4 3 4 5 11 14 15
5 4 5 5 5 6 13 16 16 11 9 8 8 9 9 8 8 9 9 9 9 8 6 3 3 2 1 0 1 1 1 2 3 4 5 4 5 4 4 4 11 14 15
5 5 6 7 7 7 12 15 14 9 9 8 7 7 9 9 12 13 11 10 10 8 9 12 9 8 9 8 5 5 5 5 4 4 4 4 4 4 4 4 8 16 16
6 7 7 7 8 7 12 16 14 9 8 7 6 7 10 11 12 13 10 10 10 7 8 10 10 10 8 8 10 6 3 3 2 3 4 5 5 4 4 4 5 8 10
Wind_Direction
231 235 240 240 238 233 227 226 230 236 240 243 245 245 248 249 244 238 241 244 240 232 227 224 223 223 225 227 229 229 227 226 226 226 227 227 228 227 224 222 221 219 216
231 234 238 236 233 230 228 225 225 233 238 240 241 240 241 242 237 235 238 243 236 228 228 229 229 229 229 229 230 230 229 228 226 225 226 228 229 228 225 223 221 219 216
232 236 240 243 238 230 223 223 226 228 235 237 240 243 245 242 239 238 242 241 238 234 232 232 233 233 232 231 231 232 231 229 227 225 226 228 229 227 224 222 220 218 216
242 239 246 250 243 233 223 221 218 220 229 231 238 247 253 259 258 254 253 243 235 236 234 233 234 236 238 237 235 234 232 230 228 225 226 228 228 226 223 221 220 217 216
264 246 250 251 244 237 232 233 226 216 227 234 240 247 248 251 256 261 257 248 239 234 233 235 235 238 242 244 241 237 235 234 231 226 224 225 227 227 224 221 219 217 216
266 252 249 246 240 239 239 234 231 227 227 233 249 254 248 246 247 250 254 253 248 243 238 236 237 242 245 246 244 239 236 235 235 231 224 222 224 225 225 221 217 216 216
273 259 257 252 242 239 240 237 234 238 241 229 239 265 268 254 250 251 250 251 252 247 239 236 236 237 244 247 244 240 238 236 237 236 229 221 220 221 222 220 216 214 215
277 277 265 260 251 245 246 240 231 237 244 220 213 240 281 291 257 248 249 258 265 262 252 247 244 238 237 240 242 240 241 240 239 239 235 225 219 217 217 218 215 214 214
278 272 266 259 253 243 245 243 234 233 243 241 213 210 223 243 283 283 243 258 321 332 312 294 266 243 230 227 236 242 246 250 248 244 240 234 222 214 213 217 217 216 215
279 271 263 254 248 241 241 244 238 231 231 242 231 218 218 204 224 286 298 274 304 302 295 283 288 291 182 162 180 219 256 269 268 259 249 243 233 220 214 218 222 221 218
280 273 263 253 245 238 235 237 236 229 224 226 218 208 215 219 212 218 266 297 326 280 262 251 250 266 90 107 108 90 61 358 313 286 269 253 240 230 222 221 226 227 223
287 276 266 253 243 237 236 235 229 219 214 206 200 193 188 190 202 198 224 259 302 298 298 320 32 50 75 100 101 92 66 12 343 324 301 278 250 238 230 228 231 233 230
290 280 270 254 241 233 230 222 215 216 208 204 200 200 198 203 199 185 188 220 249 301 346 16 21 33 45 53 53 71 52 23 6 1 5 6 10 165 179 200 232 241 240
288 282 272 254 241 232 227 222 224 224 214 209 203 195 194 206 204 188 175 169 156 12 29 20 10 23 21 33 21 24 2 1 11 19 29 45 60 75 89 94 90 273 265
306 307 293 273 263 249 235 226 232 229 209 201 193 187 186 200 209 198 173 165 154 141 73 12 15 358 3 23 17 10 352 340 341 357 17 28 38 51 61 194 244 251 254
337 356 4 355 327 292 263 238 235 225 195 186 177 172 167 145 98 172 169 165 149 136 112 41 23 358 3 11 14 13 8 12 8 349 328 330 345 349 337 314 291 274 266
352 3 3 2 350 330 309 270 221 173 146 124 116 123 112 108 103 108 116 111 104 108 108 60 28 16 19 12 0 7 20 28 23 21 9 358 354 352 342 325 309 298 291
347 354 359 358 350 350 355 29 85 97 108 110 109 110 112 106 88 86 88 83 84 92 107 93 46 23 21 10 9 16 17 31 34 35 40 41 35 22 359 334 312 298 291
338 345 357 0 0 16 44 67 91 98 102 104 105 108 110 103 88 80 80 80 83 88 92 97 68 21 12 3 2 13 27 24 37 41 45 44 43 37 21 3 344 325 310
321 333 3 19 22 34 65 88 96 99 97 92 90 90 88 91 91 86 82 83 91 89 84 84 66 26 5 337 15 13 12 11 21 27 32 31 30 27 19 11 2 351 339
304 347 33 51 44 46 92 107 105 104 98 90 79 72 72 80 81 82 87 85 88 90 82 78 64 37 16 11 1 349 11 354 359 8 358 355 356 356 355 358 359 352 345
285 40 85 78 59 63 107 111 110 103 100 95 86 74 68 65 75 75 77 78 84 94 92 83 70 54 15 2 356 9 17 28 2 340 354 326 330 327 323 338 349 353 351
210 162 130 106 84 88 113 111 108 107 100 96 91 83 79 70 73 75 65 60 55 60 83 122 96 68 27 350 19 23 22 50 10 324 356 329 326 317 312 330 347 353 353
191 177 156 134 107 107 120 115 109 103 96 91 93 96 90 71 70 81 71 56 42 31 35 73 127 138 121 140 101 70 354 22 337 344 26 354 322 320 321 334 350 353 352
187 181 162 146 121 111 123 123 116 109 101 89 85 88 94 85 78 81 76 66 49 27 40 61 80 79 67 64 72 58 40 46 13 328 358 8 322 323 331 344 352 358 354
182 172 163 157 142 133 131 133 127 124 115 106 85 77 87 96 87 83 80 75 63 36 43 52 48 39 38 39 48 64 89 84 54 343 328 357 335 346 343 333 350 358 359
Height
1536 1536 1536 1535 1535 1534 1534 1535 1535 1535 1534 1534 1534 1533 1533 1533 1532 1532 1532 1531 1531 1531 1531 1532 1532 1532 1532 1532 1532 1533 1533 1534 1535 1537 1538 1540 1541 1542 1543 1544 1545 1547 1548
1533 1533 1532 1532 1531 1531 1531 1531 1531 1531 1530 1530 1530 1530 1529 1529 1528 1528 1528 1527 1527 1527 1527 1527 1528 1528 1528 1528 1528 1528 1529 1529 1530 1531 1533 1534 1535 1537 1538 1539 1541 1542 1544
1528 1528 1528 1527 1527 1526 1526 1526 1526 1526 1525 1525 1525 1525 1525 1525 1524 1524 1523 1523 1522 1522 1522 1522 1523 1523 1523 1523 1523 1523 1524 1525 1525 1526 1527 1529 1530 1531 1533 1534 1536 1537 1539
1523 1523 1522 1520 1521 1521 1521 1521 1520 1520 1519 1519 1519 1520 1520 1520 1520 1519 1519 1518 1517 1517 1517 1517 1517 1518 1518 1518 1518 1518 1519 1520 1521 1521 1522 1523 1525 1526 1527 1529 1531 1533 1534
1518 1517 1515 1514 1514 1515 1514 1515 1514 1514 1514 1513 1514 1514 1514 1514 1513 1513 1513 1512 1512 1511 1511 1511 1511 1512 1512 1512 1513 1513 1513 1514 1515 1516 1516 1518 1519 1521 1523 1524 1526 1528 1530
1511 1510 1509 1508 1508 1508 1507 1508 1508 1507 1508 1508 1507 1507 1506 1507 1506 1506 1506 1506 1505 1505 1505 1504 1505 1505 1506 1506 1507 1507 1508 1508 1510 1510 1511 1512 1513 1515 1517 1519 1521 1523 1525
1505 1504 1503 1502 1501 1501 1501 1501 1501 1501 1501 1502 1502 1500 1499 1499 1498 1498 1498 1497 1497 1497 1498 1498 1498 1498 1499 1500 1500 1501 1502 1503 1504 1505 1506 1506 1508 1510 1512 1514 1516 1518 1520
1497 1496 1495 1494 1494 1494 1493 1494 1494 1494 1494 1495 1495 1494 1492 1492 1490 1490 1490 1490 1489 1489 1490 1491 1491 1492 1493 1493 1494 1495 1496 1496 1497 1498 1499 1501 1502 1504 1506 1509 1511 1512 1514
1490 1488 1487 1487 1486 1486 1485 1485 1486 1487 1487 1487 1488 1489 1487 1484 1483 1483 1483 1482 1481 1481 1482 1483 1485 1486 1487 1487 1488 1489 1490 1490 1491 1491 1492 1494 1496 1498 1500 1502 1505 1507 1508
1483 1481 1480 1479 1478 1478 1477 1478 1478 1478 1479 1479 1480 1480 1481 1480 1481 1478 1478 1477 1476 1476 1477 1478 1479 1481 1482 1482 1483 1483 1484 1484 1484 1484 1485 1487 1489 1491 1493 1495 1498 1500 1502
1476 1474 1472 1471 1470 1470 1470 1470 1470 1470 1471 1472 1472 1473 1474 1474 1474 1474 1473 1472 1472 1473 1474 1475 1476 1476 1477 1477 1478 1478 1479 1479 1478 1479 1479 1480 1482 1484 1486 1488 1490 1493 1495
1467 1465 1464 1463 1463 1463 1463 1463 1463 1463 1464 1465 1466 1467 1468 1469 1469 1469 1469 1468 1468 1469 1471 1472 1472 1472 1473 1473 1474 1474 1474 1474 1474 1473 1474 1475 1476 1478 1480 1482 1484 1487 1489
1460 1458 1457 1456 1456 1456 1457 1457 1457 1457 1458 1459 1460 1462 1463 1464 1465 1465 1465 1465 1466 1468 1469 1469 1470 1471 1471 1471 1471 1471 1471 1470 1469 1469 1469 1470 1471 1473 1475 1476 1478 1480 1482
1454 1452 1451 1451 1451 1451 1451 1451 1452 1452 1454 1455 1456 1457 1458 1460 1461 1462 1462 1463 1464 1466 1468 1469 1469 1470 1471 1470 1470 1469 1469 1468 1466 1465 1465 1465 1466 1468 1470 1471 1473 1474 1476
1451 1449 1448 1447 1447 1447 1447 1447 1447 1448 1450 1451 1452 1453 1455 1456 1457 1459 1460 1462 1464 1465 1467 1468 1469 1469 1470 1469 1468 1467 1466 1465 1464 1463 1463 1462 1463 1464 1465 1466 1467 1469 1470
1449 1447 1446 1445 1445 1445 1445 1444 1444 1445 1446 1448 1449 1451 1452 1454 1455 1457 1459 1461 1462 1464 1466 1468 1468 1469 1468 1467 1466 1465 1464 1463 1462 1461 1461 1460 1461 1461 1461 1462 1463 1464 1465
1450 1448 1446 1445 1444 1443 1443 1443 1443 1443 1444 1446 1447 1449 1451 1453 1455 1457 1459 1461 1462 1464 1466 1468 1468 1469 1468 1467 1466 1464 1462 1460 1459 1459 1458 1458 1459 1459 1459 1459 1460 1460 1460
1452 1449 1447 1446 1444 1443 1442 1442 1442 1442 1443 1445 1446 1449 1451 1454 1456 1458 1460 1461 1463 1464 1466 1467 1468 1469 1468 1467 1466 1464 1462 1460 1458 1457 1456 1456 1456 1457 1457 1457 1457 1456 1456
1453 1450 1448 1446 1445 1443 1443 1442 1443 1443 1444 1446 1448 1451 1453 1455 1457 1459 1460 1462 1463 1465 1466 1467 1469 1469 1469 1468 1467 1465 1463 1460 1458 1457 1456 1455 1455 1455 1455 1455 1453 1452 1451
1454 1452 1449 1447 1446 1444 1444 1444 1445 1446 1447 1449 1451 1454 1456 1457 1459 1460 1462 1463 1465 1466 1468 1469 1469 1469 1469 1468 1467 1465 1463 1461 1459 1458 1457 1456 1455 1454 1453 1452 1450 1449 1446
1454 1453 1451 1449 1447 1446 1446 1447 1448 1449 1450 1453 1455 1457 1458 1460 1461 1463 1464 1466 1467 1468 1469 1469 1470 1470 1469 1468 1467 1465 1464 1463 1461 1460 1459 1457 1455 1454 1452 1449 1447 1444 1441
1455 1454 1452 1451 1450 1450 1449 1450 1451 1453 1455 1456 1458 1460 1462 1463 1464 1465 1467 1468 1469 1469 1470 1470 1471 1470 1470 1469 1468 1467 1465 1463 1461 1462 1460 1458 1455 1453 1451 1448 1445 1441 1438
1454 1454 1454 1454 1453 1453 1453 1454 1456 1457 1459 1460 1462 1463 1464 1466 1467 1468 1469 1470 1470 1471 1471 1471 1471 1471 1471 1470 1469 1467 1466 1464 1463 1462 1460 1457 1455 1453 1450 1447 1443 1439 1436
1453 1454 1455 1455 1455 1456 1457 1458 1459 1461 1462 1464 1465 1466 1467 1468 1469 1469 1470 1470 1470 1471 1471 1471 1471 1471 1471 1471 1470 1468 1467 1465 1464 1462 1460 1457 1455 1453 1450 1447 1443 1439 1435
1452 1453 1454 1455 1456 1458 1459 1460 1461 1463 1464 1465 1467 1468 1469 1469 1469 1470 1470 1470 1471 1471 1472 1472 1472 1472 1472 1471 1470 1469 1467 1465 1464 1463 1461 1458 1455 1452 1450 1448 1444 1440 1436
1450 1452 1453 1455 1457 1458 1460 1461 1462 1464 1465 1466 1468 1469 1470 1469 1470 1470 1470 1471 1471 1472 1472 1472 1473 1473 1473 1472 1471 1469 1468 1466 1465 1464 1462 1459 1456 1453 1451 1449 1445 1441 1436